Weather History for Glencoe, MN

Change the Weather History Date:

Saturday, March 23, 2013

  Actual Average (KHCD) Record (KHCD)
Temperature  
Mean Temperature 20 °F -  
Max Temperature 31 °F 42 °F 69 °F (1959)
Min Temperature 10 °F 23 °F -9 °F (1965)
Degree Days  
Heating Degree Days 44    
Moisture  
Dew Point 16 °F    
Average Humidity 78    
Maximum Humidity 90    
Minimum Humidity 56    
Precipitation  
Precipitation 0.00 in - - ()
Sea Level Pressure  
Sea Level Pressure 30.11 in    
Wind  
Wind Speed 3 mph (West)    
Max Wind Speed 12 mph    
Max Gust Speed -    
Visibility 10 miles    
Events      
Averages and records for this station are not official NWS values.
T = Trace of Precipitation, MM = Missing Value Source: NWS Daily Summary

Daily Weather History Graph

Daily Weather History Graph

Search for Another Location

Airport:

Trip Planner

Search our weather history database for the weather conditions in past years. The results will help you decide how hot, cold, wet, or windy it might be!

Date:

Astronomy

Mar. 23, 2013 Rise Set
Actual Time 7:13 AM CDT 7:32 PM CDT
Civil Twilight 6:44 AM CDT 8:02 PM CDT
Nautical Twilight 6:09 AM CDT 8:36 PM CDT
Astronomical Twilight 5:34 AM CDT 9:12 PM CDT
Moon 3:52 PM CDT (3/23) 4:58 AM CDT (3/23)
Length of Visible Light 13h 18m
Length of Day
12h 19m
Waxing Gibbous, 85% of the Moon is Illuminated
Mar 23
Waxing Gibbous
Mar 27
Full
Apr 2
Last Quarter
Apr 10
New
Apr 18
First Quarter

Hourly Weather History & Observations

Time (CDT) Temp. Windchill Dew Point Humidity Pressure Visibility Wind Dir Wind Speed Gust Speed Precip Events Conditions
12:14 AM 22.8 °F - 15.8 °F 74% 30.09 in 10.0 mi Calm Calm - N/A   Scattered Clouds
12:34 AM 22.3 °F - 15.8 °F 76% 30.09 in 10.0 mi Calm Calm - N/A   Scattered Clouds
12:54 AM 21.0 °F - 15.3 °F 78% 30.08 in 10.0 mi Calm Calm - N/A   Clear
1:14 AM 19.0 °F - 14.7 °F 83% 30.07 in 10.0 mi Calm Calm - N/A   Clear
1:34 AM 16.7 °F - 12.6 °F 84% 30.07 in 10.0 mi Calm Calm - N/A   Clear
1:54 AM 17.1 °F - 13.1 °F 84% 30.07 in 10.0 mi Calm Calm - N/A   Clear
2:14 AM 17.2 °F 10.2 °F 14.2 °F 88% 30.08 in 10.0 mi WSW 4.6 mph - N/A   Clear
2:34 AM 15.4 °F - 12.6 °F 88% 30.07 in 10.0 mi Calm Calm - N/A   Clear
2:54 AM 14.9 °F - 12.4 °F 90% 30.07 in 10.0 mi Calm Calm - N/A   Clear
3:14 AM 16.7 °F 9.6 °F 14.0 °F 89% 30.10 in 10.0 mi WSW 4.6 mph - N/A   Clear
3:34 AM 16.0 °F - 13.5 °F 90% 30.09 in 10.0 mi Calm Calm - N/A   Clear
3:54 AM 14.0 °F - 11.7 °F 90% 30.10 in 10.0 mi Calm Calm - N/A   Clear
4:14 AM 15.3 °F 4.4 °F 12.7 °F 90% 30.11 in 10.0 mi WSW 8.1 mph - N/A   Clear
4:34 AM 14.5 °F 4.6 °F 12.0 °F 90% 30.12 in 10.0 mi WSW 6.9 mph - N/A   Clear
4:54 AM 14.0 °F 6.5 °F 11.3 °F 89% 30.12 in 10.0 mi WSW 4.6 mph - N/A   Clear
5:15 AM 13.6 °F - 10.9 °F 89% 30.12 in 10.0 mi Calm Calm - N/A   Clear
5:34 AM 13.1 °F 7.1 °F 10.4 °F 89% 30.12 in 10.0 mi WSW 3.5 mph - N/A   Clear
5:54 AM 13.1 °F 5.4 °F 10.2 °F 88% 30.12 in 10.0 mi West 4.6 mph - N/A   Clear
6:15 AM 11.7 °F 3.7 °F 9.3 °F 90% 30.10 in 10.0 mi NW 4.6 mph - N/A   Clear
6:34 AM 11.3 °F 5.1 °F 8.6 °F 89% 30.10 in 10.0 mi North 3.5 mph - N/A   Clear
6:54 AM 11.7 °F - 9.3 °F 90% 30.11 in 10.0 mi Calm Calm - N/A   Clear
7:14 AM 10.6 °F - 8.1 °F 90% 30.11 in 10.0 mi Calm Calm - N/A   Clear
7:34 AM 11.3 °F - 8.6 °F 89% 30.12 in 10.0 mi Calm Calm - N/A   Clear
7:54 AM 10.9 °F 1.4 °F 8.6 °F 90% 30.12 in 7.0 mi WSW 5.8 mph - N/A   Clear
8:15 AM 12.2 °F 4.3 °F 9.5 °F 89% 30.14 in 10.0 mi WSW 4.6 mph - N/A   Clear
8:34 AM 13.3 °F 7.3 °F 10.2 °F 88% 30.13 in 10.0 mi West 3.5 mph - N/A   Clear
8:54 AM 14.9 °F - 11.3 °F 86% 30.14 in 10.0 mi Calm Calm - N/A   Clear
9:14 AM 16.2 °F - 11.1 °F 81% 30.14 in 10.0 mi Calm Calm - N/A   Clear
9:34 AM 18.5 °F 10.4 °F 12.6 °F 78% 30.14 in 10.0 mi NW 5.8 mph - N/A   Clear
9:54 AM 18.5 °F 11.7 °F 12.4 °F 77% 30.14 in 10.0 mi NW 4.6 mph - N/A   Clear
10:14 AM 20.3 °F 13.8 °F 13.1 °F 74% 30.14 in 10.0 mi NNW 4.6 mph - N/A   Clear
10:34 AM 21.0 °F 16.2 °F 14.4 °F 75% 30.13 in 10.0 mi NW 3.5 mph - N/A   Clear
10:54 AM 22.6 °F 18.0 °F 15.3 °F 73% 30.14 in 10.0 mi WNW 3.5 mph - N/A   Clear
11:14 AM 24.8 °F 20.5 °F 14.9 °F 66% 30.15 in 10.0 mi West 3.5 mph - N/A   Clear
11:34 AM 26.6 °F 22.6 °F 15.3 °F 62% 30.15 in 10.0 mi WNW 3.5 mph - N/A   Clear
11:54 AM 27.3 °F 23.4 °F 17.1 °F 65% 30.15 in 10.0 mi WSW 3.5 mph - N/A   Clear
12:14 PM 27.7 °F 23.8 °F 18.9 °F 69% 30.15 in 10.0 mi WSW 3.5 mph - N/A   Clear
12:34 PM 27.7 °F - 18.9 °F 69% 30.15 in 10.0 mi Calm Calm - N/A   Clear
12:54 PM 28.8 °F 25.0 °F 18.0 °F 64% 30.14 in 10.0 mi NW 3.5 mph - N/A   Clear
1:14 PM 29.5 °F 25.9 °F 18.0 °F 62% 30.13 in 10.0 mi North 3.5 mph - N/A   Clear
1:34 PM 30.0 °F - 18.0 °F 61% 30.13 in 10.0 mi Calm Calm - N/A   Clear
1:55 PM 30.2 °F - 17.4 °F 59% 30.13 in 10.0 mi Calm Calm - N/A   Clear
2:14 PM 30.6 °F - 16.7 °F 56% 30.12 in 10.0 mi Calm Calm - N/A   Clear
2:34 PM 30.9 °F 27.5 °F 17.2 °F 57% 30.12 in 10.0 mi West 3.5 mph - N/A   Clear
2:54 PM 31.1 °F - 16.9 °F 56% 30.11 in 10.0 mi Calm Calm - N/A   Clear
3:14 PM 31.3 °F 27.9 °F 17.8 °F 57% 30.10 in 10.0 mi West 3.5 mph - N/A   Clear
3:34 PM 31.6 °F 27.0 °F 20.3 °F 63% 30.10 in 10.0 mi WSW 4.6 mph - N/A   Clear
3:54 PM 31.1 °F 27.7 °F 20.5 °F 65% 30.10 in 10.0 mi SW 3.5 mph - N/A   Clear
4:14 PM 31.1 °F 26.4 °F 21.4 °F 67% 30.10 in 10.0 mi West 4.6 mph - N/A   Clear
4:34 PM 31.1 °F 25.4 °F 21.7 °F 68% 30.10 in 10.0 mi WSW 5.8 mph - N/A   Scattered Clouds
4:54 PM 30.6 °F 25.8 °F 22.6 °F 72% 30.10 in 10.0 mi WSW 4.6 mph - N/A   Mostly Cloudy
5:14 PM 30.2 °F 23.4 °F 21.4 °F 70% 30.10 in 10.0 mi West 6.9 mph - N/A   Scattered Clouds
5:34 PM 30.9 °F 23.5 °F 21.7 °F 69% 30.10 in 10.0 mi West 8.1 mph - N/A   Mostly Cloudy
5:54 PM 30.7 °F 23.3 °F 22.5 °F 71% 30.11 in 10.0 mi West 8.1 mph - N/A   Mostly Cloudy
6:14 PM 30.2 °F 21.9 °F 21.7 °F 71% 30.11 in 10.0 mi West 9.2 mph - N/A   Scattered Clouds
6:34 PM 28.9 °F 20.4 °F 21.9 °F 75% 30.11 in 10.0 mi West 9.2 mph - N/A   Scattered Clouds
6:54 PM 28.2 °F 18.9 °F 21.7 °F 77% 30.11 in 10.0 mi West 10.4 mph - N/A   Clear
7:14 PM 27.9 °F 19.1 °F 21.7 °F 78% 30.11 in 10.0 mi West 9.2 mph - N/A   Mostly Cloudy
7:34 PM 27.5 °F 17.4 °F 21.7 °F 79% 30.11 in 10.0 mi West 11.5 mph - N/A   Overcast
7:54 PM 27.1 °F 18.9 °F 21.9 °F 81% 30.11 in 10.0 mi WNW 8.1 mph - N/A   Overcast
8:14 PM 27.0 °F 18.0 °F 22.1 °F 82% 30.11 in 10.0 mi WNW 9.2 mph - N/A   Mostly Cloudy
8:34 PM 26.8 °F 19.3 °F 21.9 °F 82% 30.12 in 10.0 mi WNW 6.9 mph - N/A   Scattered Clouds
8:54 PM 26.6 °F 20.0 °F 21.9 °F 82% 30.11 in 10.0 mi WNW 5.8 mph - N/A   Clear
9:14 PM 26.6 °F 19.1 °F 21.6 °F 81% 30.11 in 10.0 mi WNW 6.9 mph - N/A   Mostly Cloudy
9:34 PM 26.6 °F 19.1 °F 21.6 °F 81% 30.11 in 10.0 mi WNW 6.9 mph - N/A   Overcast
9:54 PM 26.4 °F 18.9 °F 21.4 °F 81% 30.12 in 10.0 mi WNW 6.9 mph - N/A   Overcast
10:14 PM 26.2 °F 19.6 °F 21.7 °F 83% 30.12 in 10.0 mi WNW 5.8 mph - N/A   Overcast
10:34 PM 26.2 °F 19.6 °F 21.6 °F 82% 30.12 in 10.0 mi WNW 5.8 mph - N/A   Overcast
10:54 PM 26.2 °F 20.7 °F 21.4 °F 82% 30.12 in 10.0 mi WNW 4.6 mph - N/A   Overcast
11:14 PM 25.7 °F 19.0 °F 21.2 °F 83% 30.11 in 10.0 mi WNW 5.8 mph - N/A   Overcast
11:35 PM 25.5 °F 21.3 °F 21.2 °F 84% 30.11 in 10.0 mi WNW 3.5 mph - N/A   Overcast
11:54 PM 25.3 °F 17.6 °F 21.0 °F 84% 30.10 in 10.0 mi WNW 6.9 mph - N/A   Overcast